Date String (YYYY-MM-DD hh:mm:ss) UTC,Instrument flags,absolute air pressure of the measurement (hPa),sample flow rate (lpm),inlet stack bypass flow (lpm),air temperature of the measurement (°C),ambient temperature measured by the external sensor (°C),aerosol sample conditioner tube jacket temperature (°C),OPC LED temperature (°C),internal box temperature (°C),relative humidity of the measurement (%),span deviation,mass concentration of particles derived from Lorenz-Mie calculation of OPC scattering (μg/m³),mass concentration of particles derived from Lorenz-Mie calculation of OPC scattering (μg/m³),mass concentration of particles derived from Lorenz-Mie calculation of OPC scattering (μg/m³)
DateTimeUTC,F1_M11,P_M11,Q1_M11,Q2_M11,T1_M11,T2_M11,T3_M11,T4_M11,T5_M11,U1_M11,ZSPAN_M11,X2_M11,X0_M11,X1_M11
2023-10-11 23:00:00,SystemResetWarning,0814.0,5.00,000.00,028.3,025.8,000.0,037.0,029.9,24.9,0000.0,0001.26,0004.44,0000.74
2023-10-11 23:01:00,SystemResetWarning,0814.0,5.01,000.00,028.3,026.0,000.0,036.9,030.0,24.8,0000.0,0001.19,0004.29,0000.72
2023-10-11 23:02:00,SystemResetWarning,0814.1,5.00,000.00,028.3,026.3,000.0,036.9,030.0,24.6,0000.0,0001.22,0004.33,0000.73
2023-10-11 23:03:00,SystemResetWarning,0814.1,4.99,000.00,028.3,026.4,000.0,036.9,030.0,24.6,0000.0,0001.25,0004.36,0000.74
2023-10-11 23:04:00,SystemResetWarning,0814.1,4.99,000.00,028.4,026.6,000.0,036.9,030.0,25.4,0000.0,0001.22,0004.26,0000.73
2023-10-11 23:05:00,SystemResetWarning,0814.1,5.00,000.00,028.4,026.7,000.0,036.9,030.1,25.6,0000.0,0001.24,0004.25,0000.73
2023-10-11 23:06:00,SystemResetWarning,0814.1,5.00,000.00,028.4,026.8,000.0,036.9,030.1,24.7,0000.0,0001.20,0003.98,0000.74
2023-10-11 23:07:00,SystemResetWarning,0814.1,5.00,000.00,028.4,026.9,000.0,036.9,030.1,24.8,0000.0,0001.18,0003.83,0000.75
2023-10-11 23:08:00,SystemResetWarning,0814.2,5.01,000.00,028.4,027.0,000.0,036.9,030.2,25.0,0000.0,0001.13,0003.69,0000.75
2023-10-11 23:09:00,SystemResetWarning,0814.2,5.00,000.00,028.5,027.1,000.0,036.9,030.2,25.5,0000.0,0001.08,0003.42,0000.76
2023-10-11 23:10:00,SystemResetWarning,0814.2,5.01,000.00,028.5,027.2,000.0,036.9,030.2,25.7,0000.0,0001.05,0001.75,0000.77
2023-10-11 23:11:00,SystemResetWarning,0814.1,5.00,000.00,028.5,027.2,000.0,037.0,030.2,25.8,0000.0,0001.02,0001.55,0000.77
2023-10-11 23:12:00,SystemResetWarning,0814.2,5.00,000.00,028.5,027.3,000.0,037.0,030.2,25.8,0000.0,0001.02,0001.55,0000.77
2023-10-11 23:13:00,SystemResetWarning,0814.2,5.00,000.00,028.6,027.3,000.0,037.0,030.3,25.5,0000.0,0000.96,0001.37,0000.76
2023-10-11 23:14:00,SystemResetWarning,0814.1,4.99,000.00,028.6,027.4,000.0,037.0,030.3,25.4,0000.0,0000.95,0001.37,0000.75
2023-10-11 23:15:00,SystemResetWarning,0814.1,5.00,000.00,028.6,027.4,000.0,037.0,030.3,25.4,0000.0,0000.98,0001.44,0000.75
2023-10-11 23:16:00,SystemResetWarning,0814.1,5.00,000.00,028.6,027.4,000.0,037.0,030.3,25.6,0000.0,0000.94,0001.36,0000.75
2023-10-11 23:17:00,SystemResetWarning,0814.1,5.01,000.00,028.7,027.4,000.0,037.1,030.3,25.3,0000.0,0000.90,0001.30,0000.74
2023-10-11 23:18:00,SystemResetWarning,0814.1,5.00,000.00,028.7,027.4,000.0,037.1,030.4,25.4,0000.0,0000.91,0001.30,0000.74
2023-10-11 23:19:00,SystemResetWarning,0814.1,5.00,000.00,028.7,027.5,000.0,037.1,030.4,24.9,0000.0,0000.95,0001.39,0000.74
2023-10-11 23:20:00,SystemResetWarning,0814.1,5.00,000.00,028.7,027.5,000.0,037.1,030.4,24.8,0000.0,0001.00,0001.55,0000.74
2023-10-11 23:21:00,SystemResetWarning,0814.1,5.00,000.00,028.7,027.5,000.0,037.1,030.4,25.5,0000.0,0001.05,0001.67,0000.73
2023-10-11 23:22:00,SystemResetWarning,0814.1,5.00,000.00,028.8,027.5,000.0,037.1,030.4,25.2,0000.0,0001.10,0001.79,0000.74
2023-10-11 23:23:00,SystemResetWarning,0814.1,5.00,000.00,028.8,027.5,000.0,037.2,030.5,24.8,0000.0,0001.17,0001.97,0000.75
2023-10-11 23:24:00,SystemResetWarning,0814.2,5.00,000.00,028.8,027.6,000.0,037.2,030.5,24.4,0000.0,0001.23,0003.32,0000.75
2023-10-11 23:25:00,SystemResetWarning,0814.2,4.99,000.00,028.8,027.4,000.0,037.2,030.5,24.7,0000.0,0001.27,0003.80,0000.76
2023-10-11 23:26:00,SystemResetWarning,0814.2,4.99,000.00,028.8,025.6,000.0,037.1,030.4,24.9,0000.0,0001.26,0003.77,0000.77
2023-10-11 23:27:00,SystemResetWarning,0814.1,5.01,000.00,028.7,024.4,000.0,037.1,030.2,25.1,0000.0,0001.27,0003.81,0000.77
2023-10-11 23:28:00,SystemResetWarning,0814.1,5.01,000.00,028.6,024.3,000.0,037.0,029.9,24.7,0000.0,0001.28,0003.82,0000.78
2023-10-11 23:29:00,SystemResetWarning,0814.1,5.00,000.00,028.4,024.6,000.0,037.0,029.8,24.3,0000.0,0001.32,0003.97,0000.80
2023-10-11 23:30:00,SystemResetWarning,0814.1,5.00,000.00,028.4,025.0,000.0,037.0,029.8,24.9,0000.0,0001.34,0004.06,0000.81
2023-10-11 23:31:00,SystemResetWarning,0814.1,4.99,000.00,028.3,025.4,000.0,037.0,029.9,24.8,0000.0,0001.33,0004.56,0000.82
2023-10-11 23:32:00,SystemResetWarning,0814.1,5.01,000.00,028.3,025.7,000.0,037.0,029.9,24.2,0000.0,0001.32,0004.70,0000.85
2023-10-11 23:33:00,SystemResetWarning,0814.0,5.00,000.00,028.3,026.0,000.0,037.0,030.0,24.7,0000.0,0001.32,0004.69,0000.86
2023-10-11 23:34:00,SystemResetWarning,0814.0,5.00,000.00,028.3,026.3,000.0,036.9,030.0,24.7,0000.0,0001.38,0004.83,0000.89
2023-10-11 23:35:00,SystemResetWarning,0814.1,5.00,000.00,028.3,026.5,000.0,036.9,030.0,24.7,0000.0,0001.40,0005.45,0000.91
2023-10-11 23:36:00,SystemResetWarning,0814.1,5.00,000.00,028.4,026.7,000.0,036.9,030.1,24.6,0000.0,0001.42,0005.68,0000.92
2023-10-11 23:37:00,SystemResetWarning,0814.1,4.99,000.00,028.4,026.8,000.0,036.9,030.1,24.4,0000.0,0001.43,0005.79,0000.94
2023-10-11 23:38:00,SystemResetWarning,0814.1,4.99,000.00,028.4,026.9,000.0,036.9,030.1,24.5,0000.0,0001.44,0005.80,0000.95
2023-10-11 23:39:00,SystemResetWarning,0814.1,5.00,000.00,028.4,027.0,000.0,036.9,030.1,24.5,0000.0,0001.46,0005.82,0000.97
2023-10-11 23:40:00,SystemResetWarning,0814.1,5.01,000.00,028.5,027.1,000.0,037.0,030.2,24.3,0000.0,0001.50,0005.89,0000.99
2023-10-11 23:41:00,SystemResetWarning,0814.1,5.00,000.00,028.5,027.2,000.0,037.0,030.2,24.2,0000.0,0001.59,0006.26,0001.02
2023-10-11 23:42:00,SystemResetWarning,0814.2,5.00,000.00,028.5,027.3,000.0,037.0,030.2,24.1,0000.0,0001.65,0006.50,0001.03
2023-10-11 23:43:00,SystemResetWarning,0814.2,5.00,000.00,028.6,027.3,000.0,037.0,030.2,23.8,0000.0,0001.72,0006.59,0001.04
2023-10-11 23:44:00,SystemResetWarning,0814.2,5.00,000.00,028.6,027.4,000.0,037.0,030.3,23.8,0000.0,0001.75,0006.73,0001.04
2023-10-11 23:45:00,SystemResetWarning,0814.3,5.00,000.00,028.6,027.4,000.0,037.0,030.3,23.8,0000.0,0001.69,0006.59,0001.03
2023-10-11 23:46:00,SystemResetWarning,0814.3,5.00,000.00,028.6,027.5,000.0,037.0,030.3,23.9,0000.0,0001.66,0005.41,0001.03
2023-10-11 23:47:00,SystemResetWarning,0814.3,5.00,000.00,028.7,027.5,000.0,037.0,030.4,23.9,0000.0,0001.63,0004.27,0001.02
2023-10-11 23:48:00,SystemResetWarning,0814.3,5.00,000.00,028.7,027.5,000.0,037.1,030.4,23.7,0000.0,0001.60,0004.06,0001.01
2023-10-11 23:49:00,SystemResetWarning,0814.3,5.00,000.00,028.7,027.6,000.0,037.1,030.4,23.8,0000.0,0001.61,0004.08,0001.01
2023-10-11 23:50:00,SystemResetWarning,0814.3,5.00,000.00,028.7,027.6,000.0,037.1,030.5,23.7,0000.0,0001.70,0004.34,0001.01
2023-10-11 23:51:00,SystemResetWarning,0814.3,5.00,000.00,028.8,027.6,000.0,037.1,030.5,23.7,0000.0,0001.71,0004.31,0001.00
2023-10-11 23:52:00,SystemResetWarning,0814.3,5.00,000.00,028.8,027.7,000.0,037.1,030.5,23.9,0000.0,0001.62,0004.00,0000.99
2023-10-11 23:53:00,SystemResetWarning,0814.3,5.00,000.00,028.8,027.7,000.0,037.2,030.5,24.0,0000.0,0001.58,0003.19,0000.99
2023-10-11 23:54:00,SystemResetWarning,0814.3,5.00,000.00,028.8,027.7,000.0,037.2,030.6,24.0,0000.0,0001.49,0002.83,0000.99
2023-10-11 23:55:00,SystemResetWarning,0814.4,5.00,000.00,028.9,027.7,000.0,037.2,030.6,24.0,0000.0,0001.50,0002.73,0001.01
2023-10-11 23:56:00,SystemResetWarning,0814.3,5.00,000.00,028.9,027.7,000.0,037.2,030.6,23.9,0000.0,0001.58,0002.85,0001.08
2023-10-11 23:57:00,SystemResetWarning,0814.3,5.00,000.00,028.9,027.8,000.0,037.3,030.6,23.9,0000.0,0001.66,0002.81,0001.16
2023-10-11 23:58:00,SystemResetWarning,0814.3,5.00,000.00,028.9,027.6,000.0,037.3,030.6,24.0,0000.0,0001.75,0002.84,0001.25
2023-10-11 23:59:00,SystemResetWarning,0814.4,5.00,000.00,028.9,025.8,000.0,037.2,030.5,23.9,0000.0,0001.86,0003.11,0001.31
